Location: Dumbr?vi?a
(45.8833°N, 22.7000°E)
Time: 17:12:05
(UTC+00:00)

Cosmos 1666 - Pass Details

Date: 03 March 2021
Orbit: 497 x 518 km, 82.5° (Epoch: 11 April)

Event Time Altitude Azimuth Distance (km) Brightness Sun altitude
Rises 16:54:23 0° 142° (SE) 2,575 5.9 -7.0°
Reaches altitude 10° 16:57:23 10° 115° (ESE) 1,700 4.8 -7.5°
Maximum altitude 16:59:12 13° 85° (E) 1,506 4.4 -7.9°
Drops below altitude 10° 17:01:03 10° 56° (NE) 1,710 4.8 -8.2°
Sets 17:04:05 0° 29° (NNE) 2,604 6.0 -8.7°
